Year,Month,Day,Hour,Minute,Value (Times are PST for temperature in C)
2019,10,14,00,00,9.60
2019,10,14,00,01,9.60
2019,10,14,00,02,9.60
2019,10,14,00,03,9.60
2019,10,14,00,04,9.60
2019,10,14,00,05,9.60
2019,10,14,00,06,9.60
2019,10,14,00,07,9.60
2019,10,14,00,08,9.60
2019,10,14,00,09,9.60
2019,10,14,00,10,9.60
2019,10,14,00,11,9.50
2019,10,14,00,12,9.60
2019,10,14,00,13,9.60
2019,10,14,00,14,9.60
2019,10,14,00,15,9.60
2019,10,14,00,16,9.60
2019,10,14,00,17,9.50
2019,10,14,00,18,9.50
2019,10,14,00,19,9.50
2019,10,14,00,20,9.50
2019,10,14,00,21,9.40
2019,10,14,00,22,9.40
2019,10,14,00,23,9.40
2019,10,14,00,24,9.50
2019,10,14,00,25,9.40
2019,10,14,00,26,9.40
2019,10,14,00,27,9.40
2019,10,14,00,28,9.40
2019,10,14,00,29,9.40
2019,10,14,00,30,9.40
2019,10,14,00,31,9.40
2019,10,14,00,32,9.30
2019,10,14,00,33,9.30
2019,10,14,00,34,9.30
2019,10,14,00,35,9.30
2019,10,14,00,36,9.30
2019,10,14,00,37,9.30
2019,10,14,00,38,9.20
2019,10,14,00,39,9.30
2019,10,14,00,40,9.30
2019,10,14,00,41,9.30
2019,10,14,00,42,9.30
2019,10,14,00,43,9.30
2019,10,14,00,44,9.30
2019,10,14,00,45,9.30
2019,10,14,00,46,9.30
2019,10,14,00,47,9.30
2019,10,14,00,48,9.20
2019,10,14,00,49,9.20
2019,10,14,00,50,9.20
2019,10,14,00,51,9.20
2019,10,14,00,52,9.20
2019,10,14,00,53,9.20
2019,10,14,00,54,9.20
2019,10,14,00,55,9.10
2019,10,14,00,56,9.10
2019,10,14,00,57,9.10
2019,10,14,00,58,9.10
2019,10,14,00,59,9.10
2019,10,14,01,00,9.20
2019,10,14,01,01,9.20
2019,10,14,01,02,9.20
2019,10,14,01,03,9.20
2019,10,14,01,04,9.20
2019,10,14,01,05,9.20
2019,10,14,01,06,9.20
2019,10,14,01,07,9.20
2019,10,14,01,08,9.20
2019,10,14,01,09,9.20
2019,10,14,01,10,9.20
2019,10,14,01,11,9.20
2019,10,14,01,12,9.20
2019,10,14,01,13,9.10
2019,10,14,01,14,9.10
2019,10,14,01,15,9.10
2019,10,14,01,16,9.10
2019,10,14,01,17,9.10
2019,10,14,01,18,9.20
2019,10,14,01,19,9.20
2019,10,14,01,20,9.20
2019,10,14,01,21,9.20
2019,10,14,01,22,9.20
2019,10,14,01,23,9.30
2019,10,14,01,24,9.30
2019,10,14,01,25,9.40
2019,10,14,01,26,9.40
2019,10,14,01,27,9.40
2019,10,14,01,28,9.40
2019,10,14,01,29,9.40
2019,10,14,01,30,9.30
2019,10,14,01,31,9.30
2019,10,14,01,32,9.30
2019,10,14,01,33,9.30
2019,10,14,01,34,9.30
2019,10,14,01,35,9.30
2019,10,14,01,36,9.20
2019,10,14,01,37,9.20
2019,10,14,01,38,9.20
2019,10,14,01,39,9.20
2019,10,14,01,40,9.20
2019,10,14,01,41,9.20
2019,10,14,01,42,9.20
2019,10,14,01,43,9.20
2019,10,14,01,44,9.20
2019,10,14,01,45,9.20
2019,10,14,01,46,9.20
2019,10,14,01,47,9.20
2019,10,14,01,48,9.20
2019,10,14,01,49,9.20
2019,10,14,01,50,9.20
2019,10,14,01,51,9.20
2019,10,14,01,52,9.20
2019,10,14,01,53,9.20
2019,10,14,01,54,9.10
2019,10,14,01,55,9.10
2019,10,14,01,56,9.10
2019,10,14,01,57,9.10
2019,10,14,01,58,9.10
2019,10,14,01,59,9.00
2019,10,14,02,00,9.00
2019,10,14,02,01,9.00
2019,10,14,02,02,9.00
2019,10,14,02,03,9.00
2019,10,14,02,04,9.00
2019,10,14,02,05,8.90
2019,10,14,02,06,8.90
2019,10,14,02,07,8.90
2019,10,14,02,08,8.90
2019,10,14,02,09,8.80
2019,10,14,02,10,8.70
2019,10,14,02,11,8.70
2019,10,14,02,12,8.70
2019,10,14,02,13,8.70
2019,10,14,02,14,8.70
2019,10,14,02,15,8.60
2019,10,14,02,16,8.60
2019,10,14,02,17,8.60
2019,10,14,02,18,8.60
2019,10,14,02,19,8.60
2019,10,14,02,20,8.60
2019,10,14,02,21,8.70
2019,10,14,02,22,8.70
2019,10,14,02,23,8.60
2019,10,14,02,24,8.60
2019,10,14,02,25,8.70
2019,10,14,02,26,8.70
2019,10,14,02,27,8.70
2019,10,14,02,28,8.70
2019,10,14,02,29,8.70
2019,10,14,02,30,8.70
2019,10,14,02,31,8.80
2019,10,14,02,32,8.80
2019,10,14,02,33,8.80
2019,10,14,02,34,8.80
2019,10,14,02,35,8.80
2019,10,14,02,36,8.80
2019,10,14,02,37,8.80
2019,10,14,02,38,8.70
2019,10,14,02,39,8.70
2019,10,14,02,40,8.70
2019,10,14,02,41,8.70
2019,10,14,02,42,8.70
2019,10,14,02,43,8.70
2019,10,14,02,44,8.70
2019,10,14,02,45,8.70
2019,10,14,02,46,8.70
2019,10,14,02,47,8.60
2019,10,14,02,48,8.60
2019,10,14,02,49,8.60
2019,10,14,02,50,8.50
2019,10,14,03,06,8.30
2019,10,14,03,07,8.30
2019,10,14,03,08,8.30
2019,10,14,03,09,8.40
2019,10,14,03,10,8.30
2019,10,14,03,11,8.30
2019,10,14,03,12,8.30
2019,10,14,03,13,8.30
2019,10,14,03,14,8.30
2019,10,14,03,15,8.30
2019,10,14,03,16,8.30
2019,10,14,03,17,8.30
2019,10,14,03,18,8.40
2019,10,14,03,19,8.40
2019,10,14,03,20,8.40
2019,10,14,03,21,8.40
2019,10,14,03,22,8.40
2019,10,14,03,23,8.40
2019,10,14,03,24,8.40
2019,10,14,03,25,8.40
2019,10,14,03,26,8.40
2019,10,14,03,27,8.40
2019,10,14,03,28,8.40
2019,10,14,03,29,8.40
2019,10,14,03,30,8.50
2019,10,14,03,31,8.60
2019,10,14,03,32,8.60
2019,10,14,03,33,8.50
2019,10,14,03,34,8.50
2019,10,14,03,35,8.50
2019,10,14,03,36,8.50
2019,10,14,03,37,8.40
2019,10,14,03,38,8.40
2019,10,14,03,39,8.30
2019,10,14,03,40,8.30
2019,10,14,03,41,8.30
2019,10,14,03,42,8.30
2019,10,14,03,43,8.20
2019,10,14,03,44,8.20
2019,10,14,03,45,8.20
2019,10,14,03,46,8.20
2019,10,14,03,47,8.20
2019,10,14,03,48,8.30
2019,10,14,03,49,8.30
2019,10,14,03,50,8.30
2019,10,14,03,51,8.30
2019,10,14,03,52,8.30
2019,10,14,03,53,8.30
2019,10,14,03,54,8.30
2019,10,14,03,55,8.30
2019,10,14,03,56,8.30
2019,10,14,03,57,8.30
2019,10,14,03,58,8.30
2019,10,14,03,59,8.30
2019,10,14,04,00,8.30
2019,10,14,04,01,8.30
2019,10,14,04,02,8.40
2019,10,14,04,03,8.40
2019,10,14,04,04,8.40
2019,10,14,04,05,8.40
2019,10,14,04,06,8.40
2019,10,14,04,07,8.50
2019,10,14,04,08,8.50
2019,10,14,04,09,8.50
2019,10,14,04,10,8.50
2019,10,14,04,11,8.50
2019,10,14,04,12,8.50
2019,10,14,04,13,8.60
2019,10,14,04,14,8.60
2019,10,14,04,15,8.60
2019,10,14,04,16,8.60
2019,10,14,04,17,8.60
2019,10,14,04,18,8.60
2019,10,14,04,19,8.70
2019,10,14,04,20,8.70
2019,10,14,04,21,8.70
2019,10,14,04,22,8.80
2019,10,14,04,23,8.80
2019,10,14,04,24,8.80
2019,10,14,04,25,8.80
2019,10,14,04,26,8.80
2019,10,14,04,27,8.80
2019,10,14,04,28,8.80
2019,10,14,04,29,8.80
2019,10,14,04,30,8.80
2019,10,14,04,31,8.80
2019,10,14,04,32,8.80
2019,10,14,04,33,8.80
2019,10,14,04,34,8.80
2019,10,14,04,35,8.80
2019,10,14,04,36,8.80
2019,10,14,04,37,8.80
2019,10,14,04,38,8.80
2019,10,14,04,39,8.80
2019,10,14,04,40,8.70
2019,10,14,04,41,8.80
2019,10,14,04,42,8.70
2019,10,14,04,43,8.70
2019,10,14,04,44,8.80
2019,10,14,04,45,8.80
2019,10,14,04,46,8.80
2019,10,14,04,47,8.80
2019,10,14,04,48,8.80
2019,10,14,04,49,8.80
2019,10,14,04,50,8.80
2019,10,14,04,51,8.70
2019,10,14,04,52,8.70
2019,10,14,04,53,8.60
2019,10,14,04,54,8.50
2019,10,14,04,55,8.50
2019,10,14,04,56,8.50
2019,10,14,04,57,8.50
2019,10,14,04,58,8.50
2019,10,14,04,59,8.40
2019,10,14,05,00,8.50
2019,10,14,05,01,8.50
2019,10,14,05,02,8.50
2019,10,14,05,03,8.60
2019,10,14,05,04,8.70
2019,10,14,05,05,8.70
2019,10,14,05,06,8.70
2019,10,14,05,07,8.80
2019,10,14,05,08,8.70
2019,10,14,05,09,8.70
2019,10,14,05,10,8.70
2019,10,14,05,11,8.70
2019,10,14,05,12,8.70
2019,10,14,05,13,8.70
2019,10,14,05,14,8.70
2019,10,14,05,15,8.70
2019,10,14,05,16,8.70
2019,10,14,05,17,8.60
2019,10,14,05,18,8.60
2019,10,14,05,19,8.60
2019,10,14,05,20,8.60
2019,10,14,05,21,8.60
2019,10,14,05,22,8.60
2019,10,14,05,23,8.60
2019,10,14,05,24,8.60
2019,10,14,05,25,8.60
2019,10,14,05,26,8.50
2019,10,14,05,27,8.50
2019,10,14,05,28,8.50
2019,10,14,05,29,8.50
2019,10,14,05,30,8.50
2019,10,14,05,31,8.50
2019,10,14,05,32,8.50
2019,10,14,05,33,8.50
2019,10,14,05,34,8.40
2019,10,14,05,35,8.40
2019,10,14,05,36,8.30
2019,10,14,05,37,8.30
2019,10,14,05,38,8.30
2019,10,14,05,39,8.30
2019,10,14,05,40,8.30
2019,10,14,05,41,8.40
2019,10,14,05,42,8.40
2019,10,14,05,43,8.40
2019,10,14,05,44,8.40
2019,10,14,05,45,8.40
2019,10,14,05,46,8.40
2019,10,14,05,47,8.40
2019,10,14,05,48,8.40
2019,10,14,05,49,8.40
2019,10,14,05,50,8.40
2019,10,14,05,51,8.40
2019,10,14,05,52,8.40
2019,10,14,05,53,8.40
2019,10,14,05,54,8.40
2019,10,14,05,55,8.40
2019,10,14,05,56,8.40
2019,10,14,05,57,8.40
2019,10,14,05,58,8.40
2019,10,14,05,59,8.50
2019,10,14,06,00,8.50
2019,10,14,06,01,8.50
2019,10,14,06,02,8.50
2019,10,14,06,03,8.50
2019,10,14,06,04,8.50
2019,10,14,06,05,8.50
2019,10,14,06,06,8.50
2019,10,14,06,07,8.50
2019,10,14,06,08,8.50
2019,10,14,06,09,8.50
2019,10,14,06,10,8.40
2019,10,14,06,11,8.50
2019,10,14,06,12,8.50
2019,10,14,06,13,8.40
2019,10,14,06,14,8.40
2019,10,14,06,15,8.40
2019,10,14,06,16,8.40
2019,10,14,06,17,8.40
2019,10,14,06,18,8.40
2019,10,14,06,19,8.40
2019,10,14,06,20,8.50
2019,10,14,06,21,8.50
2019,10,14,06,22,8.50
2019,10,14,06,23,8.50
2019,10,14,06,24,8.50
2019,10,14,06,25,8.60
2019,10,14,06,26,8.60
2019,10,14,06,27,8.60
2019,10,14,06,28,8.60
2019,10,14,06,29,8.60
2019,10,14,06,30,8.60
2019,10,14,06,31,8.60
2019,10,14,06,32,8.60
2019,10,14,06,33,8.60
2019,10,14,06,34,8.60
2019,10,14,06,35,8.70
2019,10,14,06,36,8.70
2019,10,14,06,37,8.70
2019,10,14,06,38,8.70
2019,10,14,06,39,8.70
2019,10,14,06,40,8.70
2019,10,14,06,41,8.70
2019,10,14,06,42,8.70
2019,10,14,06,43,8.70
2019,10,14,06,44,8.70
2019,10,14,06,45,8.70
2019,10,14,06,46,8.70
2019,10,14,06,47,8.70
2019,10,14,06,48,8.70
2019,10,14,06,49,8.80
2019,10,14,06,50,8.80
2019,10,14,06,51,8.80
2019,10,14,06,52,8.80
2019,10,14,06,53,8.80
2019,10,14,06,54,8.80
2019,10,14,06,55,8.80
2019,10,14,06,56,8.80
2019,10,14,06,57,8.80
2019,10,14,06,58,8.80
2019,10,14,06,59,8.80
2019,10,14,07,00,8.80
2019,10,14,07,01,8.80
2019,10,14,07,02,8.80
2019,10,14,07,03,8.80
2019,10,14,07,04,8.70
2019,10,14,07,05,8.70
2019,10,14,07,06,8.70
2019,10,14,07,07,8.70
2019,10,14,07,08,8.70
2019,10,14,07,09,8.70
2019,10,14,07,10,8.70
2019,10,14,07,11,8.70
2019,10,14,07,12,8.70
2019,10,14,07,13,8.70
2019,10,14,07,14,8.70
2019,10,14,08,06,8.60
2019,10,14,08,07,8.60
2019,10,14,08,08,8.60
2019,10,14,08,09,8.60
2019,10,14,08,10,8.60
2019,10,14,08,11,8.70
2019,10,14,08,12,8.70
2019,10,14,08,13,8.70
2019,10,14,08,14,8.70
2019,10,14,08,15,8.70
2019,10,14,08,16,8.70
2019,10,14,08,17,8.70
2019,10,14,08,18,8.80
2019,10,14,08,19,8.80
2019,10,14,08,20,8.80
2019,10,14,08,21,8.80
2019,10,14,08,22,8.80
2019,10,14,08,23,8.80
2019,10,14,08,24,8.80
2019,10,14,08,25,8.80
2019,10,14,08,26,8.80
2019,10,14,08,27,8.80
2019,10,14,08,28,8.80
2019,10,14,08,29,8.80
2019,10,14,08,30,8.80
2019,10,14,08,31,8.80
2019,10,14,08,32,8.80
2019,10,14,08,33,8.80
2019,10,14,08,34,8.80
2019,10,14,08,35,8.80
2019,10,14,08,36,8.80
2019,10,14,08,37,8.80
2019,10,14,08,38,8.80
2019,10,14,08,39,8.80
2019,10,14,08,40,8.80
2019,10,14,08,41,8.80
2019,10,14,08,42,8.90
2019,10,14,08,43,8.90
2019,10,14,08,44,9.00
2019,10,14,08,45,9.00
2019,10,14,08,46,9.00
2019,10,14,08,47,9.00
2019,10,14,08,48,9.00
2019,10,14,08,49,9.00
2019,10,14,08,50,9.00
2019,10,14,08,51,9.00
2019,10,14,08,52,9.00
2019,10,14,08,53,8.90
2019,10,14,08,54,8.90
2019,10,14,08,55,8.90
2019,10,14,08,56,8.90
2019,10,14,08,57,8.90
2019,10,14,08,58,8.90
2019,10,14,08,59,9.00
2019,10,14,09,00,9.00
2019,10,14,09,01,9.00
2019,10,14,09,02,8.90
2019,10,14,09,03,8.90
2019,10,14,09,04,8.90
2019,10,14,09,05,8.80
2019,10,14,09,06,8.80
2019,10,14,09,07,8.80
2019,10,14,09,08,8.80
2019,10,14,09,09,8.90
2019,10,14,09,10,8.90
2019,10,14,09,11,8.90
2019,10,14,09,12,8.90
2019,10,14,09,13,8.90
2019,10,14,09,14,8.80
2019,10,14,09,15,8.90
2019,10,14,09,16,8.90
2019,10,14,09,17,8.90
2019,10,14,09,18,8.80
2019,10,14,09,19,8.80
2019,10,14,09,20,8.80
2019,10,14,09,21,8.80
2019,10,14,09,22,8.80
2019,10,14,09,23,8.80
2019,10,14,09,24,8.80
2019,10,14,09,25,8.80
2019,10,14,09,26,8.80
2019,10,14,09,27,8.80
2019,10,14,09,28,8.80
2019,10,14,09,29,8.80
2019,10,14,09,30,8.80
2019,10,14,09,31,8.80
2019,10,14,09,32,8.80
2019,10,14,09,33,8.80
2019,10,14,09,34,8.80
2019,10,14,09,35,8.80
2019,10,14,09,36,8.70
2019,10,14,09,37,8.70
2019,10,14,09,38,8.70
2019,10,14,09,39,8.70
2019,10,14,09,40,8.70
2019,10,14,09,41,8.70
2019,10,14,09,42,8.80
2019,10,14,09,43,8.70
2019,10,14,09,44,8.80
2019,10,14,09,45,8.80
2019,10,14,09,46,8.80
2019,10,14,09,47,8.80
2019,10,14,09,48,8.80
2019,10,14,09,49,8.80
2019,10,14,09,50,8.80
2019,10,14,09,51,8.80
2019,10,14,09,52,8.80
2019,10,14,09,53,8.80
2019,10,14,09,54,8.80
2019,10,14,09,55,8.80
2019,10,14,09,56,8.80
2019,10,14,09,57,8.80
2019,10,14,09,58,8.80
2019,10,14,09,59,8.80
2019,10,14,10,00,8.80
2019,10,14,10,01,8.80
2019,10,14,10,02,8.80
2019,10,14,10,03,8.80
2019,10,14,10,04,8.90
2019,10,14,10,05,8.80
2019,10,14,10,06,8.90
2019,10,14,10,07,8.90
2019,10,14,10,08,8.90
2019,10,14,10,09,8.90
2019,10,14,10,10,8.90
2019,10,14,10,11,8.90
2019,10,14,10,12,8.90
2019,10,14,10,13,8.90
2019,10,14,10,14,8.80
2019,10,14,10,15,8.80
2019,10,14,10,16,8.80
2019,10,14,10,17,8.80
2019,10,14,10,18,8.80
2019,10,14,10,19,8.80
2019,10,14,10,20,8.80
2019,10,14,10,21,8.70
2019,10,14,10,22,8.70
2019,10,14,10,23,8.70
2019,10,14,10,24,8.70
2019,10,14,10,25,8.70
2019,10,14,10,26,8.70
2019,10,14,10,27,8.70
2019,10,14,10,28,8.70
2019,10,14,10,29,8.80
2019,10,14,10,30,8.80
2019,10,14,10,31,8.80
2019,10,14,10,32,8.70
2019,10,14,10,33,8.70
2019,10,14,10,34,8.70
2019,10,14,10,35,8.70
2019,10,14,10,36,8.70
2019,10,14,10,37,8.60
2019,10,14,10,38,8.60
2019,10,14,10,39,8.60
2019,10,14,10,40,8.50
2019,10,14,10,41,8.50
2019,10,14,10,42,8.50
2019,10,14,10,43,8.50
2019,10,14,10,44,8.50
2019,10,14,10,45,8.50
2019,10,14,10,46,8.50
2019,10,14,10,47,8.40
2019,10,14,10,48,8.40
2019,10,14,10,49,8.40
2019,10,14,10,50,8.40
2019,10,14,10,51,8.40
2019,10,14,10,52,8.40
2019,10,14,10,53,8.30
2019,10,14,10,54,8.40
2019,10,14,10,55,8.40
2019,10,14,10,56,8.30
2019,10,14,10,57,8.30
2019,10,14,10,58,8.30
2019,10,14,10,59,8.40
2019,10,14,11,00,8.40
2019,10,14,11,01,8.30
2019,10,14,11,02,8.30
2019,10,14,11,03,8.30
2019,10,14,11,04,8.30
2019,10,14,11,05,8.40
2019,10,14,11,06,8.40
2019,10,14,11,07,8.40
2019,10,14,11,08,8.40
2019,10,14,11,09,8.40
2019,10,14,11,10,8.40
2019,10,14,11,11,8.40
2019,10,14,11,12,8.40
2019,10,14,11,13,8.40
2019,10,14,11,14,8.40
2019,10,14,11,15,8.40
2019,10,14,11,16,8.40
2019,10,14,11,17,8.40
2019,10,14,11,18,8.40
2019,10,14,11,19,8.40
2019,10,14,11,20,8.40
2019,10,14,11,21,8.40
2019,10,14,11,22,8.40
2019,10,14,11,23,8.40
2019,10,14,11,24,8.40
2019,10,14,11,25,8.40
2019,10,14,11,26,8.40
2019,10,14,11,27,8.40
2019,10,14,11,28,8.40
2019,10,14,11,29,8.40
2019,10,14,11,30,8.40
2019,10,14,11,31,8.40
2019,10,14,11,32,8.40
2019,10,14,11,33,8.40
2019,10,14,11,34,8.40
2019,10,14,11,35,8.40
2019,10,14,11,36,8.40
2019,10,14,11,37,8.40
2019,10,14,11,38,8.40
2019,10,14,11,39,8.40
2019,10,14,11,40,8.50
2019,10,14,11,41,8.50
2019,10,14,11,42,8.50
2019,10,14,11,43,8.50
2019,10,14,11,44,8.50
2019,10,14,11,45,8.50
2019,10,14,11,46,8.50
2019,10,14,11,47,8.50
2019,10,14,11,48,8.50
2019,10,14,11,49,8.50
2019,10,14,11,50,8.50
2019,10,14,11,51,8.50
2019,10,14,11,52,8.50
2019,10,14,11,53,8.50
2019,10,14,11,54,8.50
2019,10,14,11,55,8.50
2019,10,14,11,56,8.50
2019,10,14,11,57,8.50
2019,10,14,11,58,8.50
2019,10,14,11,59,8.40
2019,10,14,12,00,8.50
2019,10,14,12,01,8.50
2019,10,14,12,02,8.50
2019,10,14,12,03,8.40
2019,10,14,12,04,8.40
2019,10,14,12,05,8.40
2019,10,14,12,06,8.40
2019,10,14,12,07,8.40
2019,10,14,12,08,8.40
2019,10,14,12,09,8.40
2019,10,14,12,10,8.40
2019,10,14,12,11,8.40
2019,10,14,12,12,8.40
2019,10,14,12,13,8.40
2019,10,14,12,14,8.40
2019,10,14,12,15,8.40
2019,10,14,12,16,8.40
2019,10,14,12,17,8.40
2019,10,14,12,18,8.40
2019,10,14,12,19,8.50
2019,10,14,12,20,8.50
2019,10,14,12,21,8.50
2019,10,14,12,22,8.50
2019,10,14,12,23,8.50
2019,10,14,12,24,8.50
2019,10,14,12,25,8.50
2019,10,14,12,26,8.50
2019,10,14,12,27,8.50
2019,10,14,12,28,8.50
2019,10,14,12,29,8.50
2019,10,14,12,30,8.50
2019,10,14,12,31,8.50
2019,10,14,12,32,8.50
2019,10,14,12,33,8.50
2019,10,14,12,34,8.50
2019,10,14,12,35,8.50
2019,10,14,12,36,8.50
2019,10,14,12,37,8.50
2019,10,14,12,38,8.50
2019,10,14,12,39,8.60
2019,10,14,12,40,8.60
2019,10,14,12,41,8.60
2019,10,14,12,42,8.60
2019,10,14,12,43,8.60
2019,10,14,12,44,8.60
2019,10,14,12,45,8.70
2019,10,14,12,46,8.70
2019,10,14,12,47,8.70
2019,10,14,12,48,8.70
2019,10,14,12,49,8.70
2019,10,14,12,50,8.70
2019,10,14,12,51,8.70
2019,10,14,12,52,8.70
2019,10,14,12,53,8.80
2019,10,14,12,54,8.80
2019,10,14,12,55,8.80
2019,10,14,12,56,8.80
2019,10,14,12,57,8.80
2019,10,14,12,58,8.80
2019,10,14,12,59,8.80
2019,10,14,13,00,8.80
2019,10,14,13,01,8.80
2019,10,14,13,02,8.80
2019,10,14,13,03,8.80
2019,10,14,13,04,8.80
2019,10,14,13,05,8.80
2019,10,14,14,06,9.10
2019,10,14,14,07,9.10
2019,10,14,14,08,9.10
2019,10,14,14,09,9.10
2019,10,14,14,10,9.10
2019,10,14,14,11,9.10
2019,10,14,14,12,9.10
2019,10,14,14,13,9.10
2019,10,14,14,14,9.10
2019,10,14,14,15,9.10
2019,10,14,14,16,9.10
2019,10,14,14,17,9.10
2019,10,14,14,18,9.20
2019,10,14,14,19,9.20
2019,10,14,14,20,9.20
2019,10,14,14,21,9.20
2019,10,14,14,22,9.20
2019,10,14,14,23,9.20
2019,10,14,14,24,9.20
2019,10,14,14,25,9.20
2019,10,14,14,26,9.20
2019,10,14,14,27,9.20
2019,10,14,14,28,9.20
2019,10,14,14,29,9.20
2019,10,14,14,30,9.20
2019,10,14,14,31,9.20
2019,10,14,14,32,9.20
2019,10,14,14,33,9.20
2019,10,14,14,34,9.20
2019,10,14,14,35,9.20
2019,10,14,14,36,9.20
2019,10,14,14,37,9.20
2019,10,14,14,38,9.20
2019,10,14,14,39,9.20
2019,10,14,14,40,9.20
2019,10,14,14,41,9.20
2019,10,14,14,42,9.20
2019,10,14,14,43,9.20
2019,10,14,14,44,9.20
2019,10,14,14,45,9.20
2019,10,14,14,46,9.20
2019,10,14,14,47,9.20
2019,10,14,14,48,9.20
2019,10,14,14,49,9.30
2019,10,14,14,50,9.30
2019,10,14,14,51,9.30
2019,10,14,14,52,9.30
2019,10,14,14,53,9.30
2019,10,14,14,54,9.30
2019,10,14,14,55,9.30
2019,10,14,14,56,9.30
2019,10,14,14,57,9.30
2019,10,14,14,58,9.30
2019,10,14,14,59,9.30
2019,10,14,15,00,9.40
2019,10,14,15,01,9.40
2019,10,14,15,02,9.40
2019,10,14,15,03,9.40
2019,10,14,15,04,9.40
2019,10,14,15,05,9.40
2019,10,14,15,06,9.40
2019,10,14,15,07,9.40
2019,10,14,15,08,9.40
2019,10,14,15,09,9.40
2019,10,14,15,10,9.40
2019,10,14,15,11,9.40
2019,10,14,15,12,9.40
2019,10,14,15,13,9.40
2019,10,14,15,14,9.50
2019,10,14,15,15,9.50
2019,10,14,15,16,9.50
2019,10,14,15,17,9.50
2019,10,14,15,18,9.50
2019,10,14,15,19,9.50
2019,10,14,15,20,9.50
2019,10,14,15,21,9.40
2019,10,14,15,22,9.50
2019,10,14,15,23,9.50
2019,10,14,15,24,9.50
2019,10,14,15,25,9.50
2019,10,14,15,26,9.50
2019,10,14,15,27,9.50
2019,10,14,15,28,9.50
2019,10,14,15,29,9.60
2019,10,14,15,30,9.60
2019,10,14,15,31,9.60
2019,10,14,15,32,9.60
2019,10,14,15,33,9.60
2019,10,14,15,34,9.60
2019,10,14,15,35,9.60
2019,10,14,15,36,9.70
2019,10,14,15,37,9.70
2019,10,14,15,38,9.70
2019,10,14,15,39,9.70
2019,10,14,15,40,9.70
2019,10,14,15,41,9.70
2019,10,14,15,42,9.60
2019,10,14,15,43,9.60
2019,10,14,15,44,9.60
2019,10,14,15,45,9.60
2019,10,14,15,46,9.60
2019,10,14,15,47,9.60
2019,10,14,15,48,9.60
2019,10,14,15,49,9.60
2019,10,14,15,50,9.60
2019,10,14,15,51,9.60
2019,10,14,15,52,9.60
2019,10,14,15,53,9.60
2019,10,14,15,54,9.60
2019,10,14,15,55,9.60
2019,10,14,15,56,9.60
2019,10,14,15,57,9.60
2019,10,14,15,58,9.60
2019,10,14,15,59,9.60
2019,10,14,16,00,9.60
2019,10,14,16,01,9.60
2019,10,14,16,02,9.60
2019,10,14,16,03,9.60
2019,10,14,16,04,9.60
2019,10,14,16,05,9.60
2019,10,14,16,06,9.60
2019,10,14,16,07,9.70
2019,10,14,16,08,9.70
2019,10,14,16,09,9.70
2019,10,14,16,10,9.70
2019,10,14,16,11,9.70
2019,10,14,16,12,9.70
2019,10,14,16,13,9.70
2019,10,14,16,14,9.70
2019,10,14,16,15,9.70
2019,10,14,16,16,9.70
2019,10,14,16,17,9.70
2019,10,14,16,18,9.70
2019,10,14,16,19,9.80
2019,10,14,16,20,9.80
2019,10,14,16,21,9.80
2019,10,14,16,22,9.80
2019,10,14,16,23,9.80
2019,10,14,16,24,9.80
2019,10,14,16,25,9.80
2019,10,14,16,26,9.80
2019,10,14,16,27,9.70
2019,10,14,16,28,9.80
2019,10,14,16,29,9.70
2019,10,14,16,30,9.70
2019,10,14,16,31,9.70
2019,10,14,16,32,9.70
2019,10,14,16,33,9.70
2019,10,14,16,34,9.70
2019,10,14,16,35,9.70
2019,10,14,16,36,9.70
2019,10,14,16,37,9.70
2019,10,14,16,38,9.70
2019,10,14,16,39,9.70
2019,10,14,16,40,9.70
2019,10,14,16,41,9.70
2019,10,14,16,42,9.70
2019,10,14,16,43,9.70
2019,10,14,16,44,9.70
2019,10,14,16,45,9.70
2019,10,14,16,46,9.70
2019,10,14,16,47,9.80
2019,10,14,16,48,9.80
2019,10,14,16,49,9.70
2019,10,14,16,50,9.70
2019,10,14,16,51,9.70
2019,10,14,16,52,9.60
2019,10,14,16,53,9.60
2019,10,14,16,54,9.60
2019,10,14,16,55,9.60
2019,10,14,16,56,9.60
2019,10,14,16,57,9.60
2019,10,14,16,58,9.60
2019,10,14,16,59,9.60
2019,10,14,17,00,9.60
2019,10,14,17,01,9.60
2019,10,14,17,02,9.60
2019,10,14,17,03,9.60
2019,10,14,17,04,9.60
2019,10,14,17,05,9.60
2019,10,14,17,06,9.60
2019,10,14,17,07,9.60
2019,10,14,17,08,9.60
2019,10,14,17,09,9.60
2019,10,14,17,10,9.60
2019,10,14,17,11,9.60
2019,10,14,17,12,9.60
2019,10,14,17,13,9.60
2019,10,14,17,14,9.60
2019,10,14,17,15,9.60
2019,10,14,17,16,9.50
2019,10,14,17,17,9.50
2019,10,14,17,18,9.50
2019,10,14,17,19,9.50
2019,10,14,17,20,9.50
2019,10,14,17,21,9.50
2019,10,14,17,22,9.50
2019,10,14,17,23,9.50
2019,10,14,17,24,9.50
2019,10,14,17,25,9.60
2019,10,14,17,26,9.60
2019,10,14,17,27,9.60
2019,10,14,17,28,9.60
2019,10,14,17,29,9.60
2019,10,14,17,30,9.70
2019,10,14,17,31,9.70
2019,10,14,17,32,9.70
2019,10,14,17,33,9.70
2019,10,14,17,34,9.70
2019,10,14,17,35,9.70
2019,10,14,17,36,9.70
2019,10,14,17,37,9.70
2019,10,14,17,38,9.70
2019,10,14,17,39,9.70
2019,10,14,17,40,9.70
2019,10,14,17,41,9.60
2019,10,14,17,42,9.60
2019,10,14,17,43,9.60
2019,10,14,17,44,9.60
2019,10,14,17,45,9.60
2019,10,14,17,46,9.60
2019,10,14,17,47,9.70
2019,10,14,17,48,9.70
2019,10,14,17,49,9.70
2019,10,14,17,50,9.70
2019,10,14,17,51,9.70
2019,10,14,17,52,9.70
2019,10,14,17,53,9.70
2019,10,14,17,54,9.70
2019,10,14,17,55,9.70
2019,10,14,17,56,9.70
2019,10,14,17,57,9.70
2019,10,14,17,58,9.70
2019,10,14,17,59,9.70
2019,10,14,18,00,9.70
2019,10,14,18,01,9.70
2019,10,14,18,02,9.70
2019,10,14,18,03,9.70
2019,10,14,18,04,9.80
2019,10,14,18,05,9.80
2019,10,14,18,06,9.80
2019,10,14,18,07,9.80
2019,10,14,18,08,9.80
2019,10,14,18,09,9.80
2019,10,14,18,10,9.90
2019,10,14,18,11,9.90
2019,10,14,18,12,9.90
2019,10,14,18,13,9.90
2019,10,14,18,14,9.90
2019,10,14,18,15,9.90
2019,10,14,18,16,10.00
2019,10,14,18,17,10.00
2019,10,14,18,18,10.00
2019,10,14,18,19,10.00
2019,10,14,18,20,10.00
2019,10,14,18,21,10.00
2019,10,14,18,22,10.00
2019,10,14,18,23,10.00
2019,10,14,18,24,10.00
2019,10,14,18,25,9.90
2019,10,14,18,26,9.90
2019,10,14,18,27,9.90
2019,10,14,18,28,9.90
2019,10,14,18,29,9.90
2019,10,14,18,30,9.90
2019,10,14,18,31,9.80
2019,10,14,18,32,9.80
2019,10,14,18,33,9.80
2019,10,14,18,34,9.70
2019,10,14,18,35,9.70
2019,10,14,18,36,9.70
2019,10,14,18,37,9.60
2019,10,14,18,38,9.60
2019,10,14,18,39,9.60
2019,10,14,18,40,9.60
2019,10,14,18,41,9.60
2019,10,14,18,42,9.60
2019,10,14,18,43,9.60
2019,10,14,18,44,9.60
2019,10,14,18,45,9.60
2019,10,14,18,46,9.60
2019,10,14,18,47,9.60
2019,10,14,18,48,9.60
2019,10,14,18,49,9.60
2019,10,14,18,50,9.60
2019,10,14,18,51,9.60
2019,10,14,18,52,9.60
2019,10,14,18,53,9.60
2019,10,14,18,54,9.60
2019,10,14,18,55,9.60
2019,10,14,18,56,9.60
2019,10,14,18,57,9.60
2019,10,14,18,58,9.60
2019,10,14,18,59,9.60
2019,10,14,19,00,9.60
2019,10,14,19,01,9.60
2019,10,14,19,02,9.60
2019,10,14,19,03,9.60
2019,10,14,19,04,9.60
2019,10,14,19,05,9.60
2019,10,14,19,06,9.60
2019,10,14,19,07,9.60
2019,10,14,19,08,9.60
2019,10,14,19,09,9.60
2019,10,14,19,10,9.60
2019,10,14,19,11,9.60
2019,10,14,19,12,9.60
2019,10,14,19,13,9.60
2019,10,14,20,06,9.30
2019,10,14,20,07,9.30
2019,10,14,20,08,9.30
2019,10,14,20,09,9.30
2019,10,14,20,10,9.30
2019,10,14,20,11,9.40
2019,10,14,20,12,9.30
2019,10,14,20,13,9.30
2019,10,14,20,14,9.30
2019,10,14,20,15,9.30
2019,10,14,20,16,9.30
2019,10,14,20,17,9.30
2019,10,14,20,18,9.30
2019,10,14,20,19,9.30
2019,10,14,20,20,9.30
2019,10,14,20,21,9.30
2019,10,14,20,22,9.30
2019,10,14,20,23,9.30
2019,10,14,20,24,9.30
2019,10,14,20,25,9.30
2019,10,14,20,26,9.30
2019,10,14,20,27,9.30
2019,10,14,20,28,9.30
2019,10,14,20,29,9.30
2019,10,14,20,30,9.30
2019,10,14,20,31,9.30
2019,10,14,20,32,9.30
2019,10,14,20,33,9.30
2019,10,14,20,34,9.30
2019,10,14,20,35,9.30
2019,10,14,20,36,9.40
2019,10,14,20,37,9.40
2019,10,14,20,38,9.40
2019,10,14,20,39,9.40
2019,10,14,20,40,9.40
2019,10,14,20,41,9.40
2019,10,14,20,42,9.40
2019,10,14,20,43,9.40
2019,10,14,20,44,9.40
2019,10,14,20,45,9.40
2019,10,14,20,46,9.40
2019,10,14,20,47,9.40
2019,10,14,20,48,9.40
2019,10,14,20,49,9.40
2019,10,14,20,50,9.40
2019,10,14,20,51,9.40
2019,10,14,20,52,9.40
2019,10,14,20,53,9.40
2019,10,14,20,54,9.40
2019,10,14,20,55,9.40
2019,10,14,20,56,9.40
2019,10,14,20,57,9.40
2019,10,14,20,58,9.40
2019,10,14,20,59,9.40
2019,10,14,21,00,9.40
2019,10,14,21,01,9.50
2019,10,14,21,02,9.50
2019,10,14,21,03,9.50
2019,10,14,21,04,9.50